MST,Max TemperatureF,Mean TemperatureF,Min TemperatureF,Max Dew PointF,MeanDew PointF,Min DewpointF,Max Humidity, Mean Humidity, Min Humidity, Max Sea Level PressureIn, Mean Sea Level PressureIn, Min Sea Level PressureIn, Max VisibilityMiles, Mean VisibilityMiles, Min VisibilityMiles, Max Wind SpeedMPH, Mean Wind SpeedMPH, Max Gust SpeedMPH,PrecipitationIn, CloudCover, Events, WindDirDegrees
2013-2-1,62,44,26,28,22,9,81,53,14,30.25,30.20,30.13,10,10,10,8,5,,0.00,0,,200
2013-2-2,61,46,30,27,24,17,76,49,19,30.31,30.23,30.17,10,10,10,10,4,,0.00,0,,235
2013-2-3,50,44,35,41,35,27,100,70,53,30.14,30.05,29.97,10,10,4,6,1,,0.03,6,Rain,178
2013-2-4,57,44,30,36,29,24,96,63,27,30.08,30.03,29.96,10,10,8,9,3,,0.00,0,,219
2013-2-5,62,45,28,31,27,23,81,56,22,30.06,29.98,29.90,10,10,10,13,5,,0.00,0,,202
2013-2-6,55,45,35,35,30,27,79,58,33,30.02,29.92,29.86,10,10,10,14,8,20,0.00,1,,212
2013-2-7,57,44,30,31,28,24,85,60,28,30.11,30.01,29.89,10,10,10,12,5,,0.00,1,,180
2013-2-8,48,39,30,31,21,0,86,51,18,29.84,29.73,29.67,10,9,2,26,12,39,0.00,2,Snow,197
2013-2-9,33,30,25,28,25,19,100,85,72,29.98,29.79,29.65,10,5,0,17,8,22,0.11,6,Fog-Snow,227
2013-2-10,37,31,24,28,24,19,100,78,54,29.97,29.93,29.87,10,7,0,15,7,21,0.01,6,Snow,216
2013-2-11,37,28,19,28,21,14,100,81,42,30.16,30.01,29.94,10,4,0,12,3,,0.00,4,Fog-Snow,324
2013-2-12,42,30,18,17,13,9,78,54,27,30.27,30.21,30.14,10,10,10,9,4,,0.00,0,,297
2013-2-13,52,38,23,23,18,14,75,53,26,30.23,30.16,30.09,10,10,10,10,4,,0.00,0,,252
2013-2-14,55,40,24,24,20,18,81,53,23,30.20,30.14,30.07,10,10,10,16,6,23,0.00,0,,283
2013-2-15,61,42,24,23,14,5,75,42,12,30.35,30.27,30.19,10,10,10,10,4,,0.00,0,,204
2013-2-16,64,44,24,15,8,-7,57,32,6,30.36,30.22,30.01,10,10,10,10,4,,0.00,0,,186
2013-2-17,59,44,28,19,10,-1,58,30,9,29.99,29.88,29.78,10,10,10,17,7,24,0.00,0,,228
2013-2-18,59,44,28,17,13,5,58,31,12,30.04,29.93,29.86,10,10,10,13,6,,0.00,0,,186
2013-2-19,54,41,28,27,15,7,57,38,16,29.89,29.73,29.53,10,10,10,16,8,23,0.00,0,,183
2013-2-20,39,34,28,31,26,16,93,80,50,29.83,29.62,29.50,10,6,0,14,8,18,0.06,7,Fog-Snow,205
2013-2-21,41,34,27,28,25,19,85,75,41,29.99,29.90,29.83,10,10,2,17,6,22,0.00,6,Snow,206
2013-2-22,46,32,18,20,15,8,84,55,24,30.12,30.06,29.97,10,10,10,13,5,28,0.00,0,,277
2013-2-23,51,37,23,26,18,15,89,50,25,30.10,29.93,29.78,10,9,2,22,8,30,0.00,2,Snow,209
2013-2-24,42,32,21,32,14,3,100,58,21,30.09,29.94,29.80,10,8,0,31,10,41,0.01,3,Fog-Snow,325
2013-2-25,53,36,19,12,7,-8,60,36,8,30.19,30.09,30.00,10,10,10,14,6,,0.00,0,,242
2013-2-26,48,34,21,12,4,-5,63,33,11,30.13,30.02,29.94,10,10,10,23,8,29,0.00,0,,342
2013-2-27,50,34,17,6,1,-5,56,29,11,30.27,30.21,30.15,10,10,10,13,3,,0.00,0,,319
2013-2-28,57,39,21,9,2,-6,53,26,8,30.38,30.31,30.26,10,10,9,14,4,23,0.00,0,,276